Time,TemperatureF,DewpointF,PressureIn,WindDirection,WindDirectionDegrees,WindSpeedMPH,WindSpeedGustMPH,Humidity,HourlyPrecipIn,Conditions,Clouds,dailyrainin,SoftwareType,DateUTC
2013-06-02 00:01:00,74.3,65.9,29.73,SSW,202,1.1,2.2,75,0.00,,,0.00,Weather8,2013-06-02 04:01:00,
2013-06-02 00:06:00,74.3,65.9,29.73,ESE,112,2.0,2.7,75,0.00,,,0.00,Weather8,2013-06-02 04:06:00,
2013-06-02 00:11:00,74.2,65.8,29.73,SSW,202,0.4,2.7,75,0.00,,,0.00,Weather8,2013-06-02 04:11:00,
2013-06-02 00:16:00,74.2,65.8,29.73,SSW,202,1.1,2.0,75,0.00,,,0.00,Weather8,2013-06-02 04:16:00,
2013-06-02 00:21:00,74.2,65.8,29.73,SW,225,1.1,1.8,75,0.00,,,0.00,Weather8,2013-06-02 04:21:00,
2013-06-02 00:26:00,74.0,65.6,29.73,South,180,1.3,2.0,75,0.00,,,0.00,Weather8,2013-06-02 04:26:00,
2013-06-02 00:31:00,74.0,65.6,29.73,SSW,202,2.2,2.2,75,0.00,,,0.00,Weather8,2013-06-02 04:31:00,
2013-06-02 00:34:00,73.8,65.4,29.72,SW,225,1.6,2.2,75,0.00,,,0.00,Weather8,2013-06-02 04:34:00,
2013-06-02 00:35:00,73.8,65.4,29.73,SW,225,1.1,2.2,75,0.00,,,0.00,Weather8,2013-06-02 04:35:00,
2013-06-02 00:36:00,73.8,65.4,29.73,SSW,202,2.5,2.5,75,0.00,,,0.00,Weather8,2013-06-02 04:36:00,
2013-06-02 00:41:00,73.6,65.3,29.73,WSW,247,1.3,2.7,75,0.00,,,0.00,Weather8,2013-06-02 04:41:00,
2013-06-02 00:46:00,73.6,65.3,29.73,ESE,112,1.3,2.7,75,0.00,,,0.00,Weather8,2013-06-02 04:46:00,
2013-06-02 00:51:00,73.4,65.4,29.73,SE,135,1.3,2.7,76,0.00,,,0.00,Weather8,2013-06-02 04:51:00,
2013-06-02 00:56:00,73.4,65.1,29.73,ESE,112,0.4,2.5,75,0.00,,,0.00,Weather8,2013-06-02 04:56:00,
2013-06-02 01:01:00,73.3,65.3,29.73,SSE,157,2.2,2.5,76,0.00,,,0.00,Weather8,2013-06-02 05:01:00,
2013-06-02 01:04:00,73.3,65.3,29.73,SW,225,1.3,2.5,76,0.00,,,0.00,Weather8,2013-06-02 05:04:00,
2013-06-02 01:09:00,73.1,65.1,29.73,SW,225,1.8,2.5,76,0.00,,,0.00,Weather8,2013-06-02 05:09:00,
2013-06-02 01:14:00,73.1,65.1,29.72,SW,225,0.7,2.2,76,0.00,,,0.00,Weather8,2013-06-02 05:14:00,
2013-06-02 01:19:00,72.9,64.9,29.72,SSW,202,1.6,2.0,76,0.00,,,0.00,Weather8,2013-06-02 05:19:00,
2013-06-02 01:24:00,72.7,65.1,29.72,North,0,1.1,2.0,77,0.00,,,0.00,Weather8,2013-06-02 05:24:00,
2013-06-02 01:29:00,72.7,65.1,29.72,SSW,202,1.8,2.0,77,0.00,,,0.00,Weather8,2013-06-02 05:29:00,
2013-06-02 01:34:00,72.5,64.9,29.72,South,180,0.7,2.5,77,0.00,,,0.00,Weather8,2013-06-02 05:34:00,
2013-06-02 01:39:00,72.4,64.7,29.72,South,180,1.1,2.5,77,0.00,,,0.00,Weather8,2013-06-02 05:39:00,
2013-06-02 01:44:00,72.4,64.7,29.71,SW,225,0.9,2.7,77,0.00,,,0.00,Weather8,2013-06-02 05:44:00,
2013-06-02 01:49:00,72.4,64.7,29.71,SSW,202,1.6,2.7,77,0.00,,,0.00,Weather8,2013-06-02 05:49:00,
2013-06-02 01:54:00,72.2,64.5,29.71,SW,225,1.1,2.7,77,0.00,,,0.00,Weather8,2013-06-02 05:54:00,
2013-06-02 01:59:00,72.0,64.4,29.71,SSW,202,1.6,1.8,77,0.00,,,0.00,Weather8,2013-06-02 05:59:00,
2013-06-02 02:04:00,72.0,64.4,29.71,SW,225,1.1,2.0,77,0.00,,,0.00,Weather8,2013-06-02 06:04:00,
2013-06-02 02:09:00,72.0,64.4,29.71,South,180,2.2,2.2,77,0.00,,,0.00,Weather8,2013-06-02 06:09:00,
2013-06-02 02:14:00,71.8,64.2,29.71,SSW,202,1.1,2.2,77,0.00,,,0.00,Weather8,2013-06-02 06:14:00,
2013-06-02 02:19:00,71.6,64.5,29.71,SW,225,2.5,2.5,78,0.00,,,0.00,Weather8,2013-06-02 06:19:00,
2013-06-02 02:24:00,71.6,64.5,29.71,SSW,202,1.8,2.5,78,0.00,,,0.00,Weather8,2013-06-02 06:24:00,
2013-06-02 02:29:00,71.6,64.8,29.70,SSE,157,1.8,2.5,79,0.00,,,0.00,Weather8,2013-06-02 06:29:00,
2013-06-02 02:34:00,71.5,64.6,29.71,SW,225,1.6,2.5,79,0.00,,,0.00,Weather8,2013-06-02 06:34:00,
2013-06-02 02:39:00,71.5,64.6,29.71,SW,225,2.5,2.5,79,0.00,,,0.00,Weather8,2013-06-02 06:39:00,
2013-06-02 02:44:00,71.3,64.5,29.70,SW,225,2.7,2.7,79,0.00,,,0.00,Weather8,2013-06-02 06:44:00,
2013-06-02 02:49:00,71.3,64.8,29.70,SSW,202,1.1,2.7,80,0.00,,,0.00,Weather8,2013-06-02 06:49:00,
2013-06-02 02:54:00,71.3,64.8,29.70,SW,225,1.3,2.7,80,0.00,,,0.00,Weather8,2013-06-02 06:54:00,
2013-06-02 02:59:00,71.1,64.6,29.70,South,180,1.6,2.5,80,0.00,,,0.00,Weather8,2013-06-02 06:59:00,
2013-06-02 03:04:00,71.1,64.6,29.70,SW,225,1.1,2.5,80,0.00,,,0.00,Weather8,2013-06-02 07:04:00,
2013-06-02 03:09:00,71.1,64.6,29.70,ESE,112,1.1,2.5,80,0.00,,,0.00,Weather8,2013-06-02 07:09:00,
2013-06-02 03:14:00,70.9,64.8,29.70,WSW,247,2.5,2.7,81,0.00,,,0.00,Weather8,2013-06-02 07:14:00,
2013-06-02 03:19:00,70.9,64.8,29.70,SW,225,1.8,2.7,81,0.00,,,0.00,Weather8,2013-06-02 07:19:00,
2013-06-02 03:24:00,70.9,64.8,29.69,SW,225,2.2,2.5,81,0.00,,,0.00,Weather8,2013-06-02 07:24:00,
2013-06-02 03:29:00,70.9,64.8,29.70,SSW,202,1.8,2.5,81,0.00,,,0.00,Weather8,2013-06-02 07:29:00,
2013-06-02 03:34:00,70.9,65.2,29.69,SW,225,2.2,2.5,82,0.00,,,0.00,Weather8,2013-06-02 07:34:00,
2013-06-02 03:39:00,70.7,65.0,29.69,SE,135,1.8,2.2,82,0.00,,,0.00,Weather8,2013-06-02 07:39:00,
2013-06-02 03:44:00,70.7,65.0,29.69,SW,225,1.1,2.2,82,0.00,,,0.00,Weather8,2013-06-02 07:44:00,
2013-06-02 03:49:00,70.7,65.0,29.70,SSW,202,2.0,2.2,82,0.00,,,0.00,Weather8,2013-06-02 07:49:00,
2013-06-02 03:54:00,70.7,65.0,29.70,WSW,247,1.1,2.2,82,0.00,,,0.00,Weather8,2013-06-02 07:54:00,
2013-06-02 03:59:00,70.7,65.0,29.69,WSW,247,1.8,2.2,82,0.00,,,0.00,Weather8,2013-06-02 07:59:00,
2013-06-02 04:04:00,70.7,65.3,29.70,SSW,202,1.1,2.2,83,0.00,,,0.00,Weather8,2013-06-02 08:04:00,
2013-06-02 04:09:00,70.7,65.3,29.69,SW,225,1.6,2.2,83,0.00,,,0.00,Weather8,2013-06-02 08:09:00,
2013-06-02 04:14:00,70.7,65.3,29.69,SSE,157,1.1,2.7,83,0.00,,,0.00,Weather8,2013-06-02 08:14:00,
2013-06-02 04:19:00,70.7,65.3,29.69,SE,135,1.6,2.7,83,0.00,,,0.00,Weather8,2013-06-02 08:19:00,
2013-06-02 04:24:00,70.7,65.0,29.69,SSW,202,1.1,2.7,82,0.00,,,0.00,Weather8,2013-06-02 08:24:00,
2013-06-02 04:29:00,70.7,65.3,29.69,SSE,157,0.9,2.5,83,0.00,,,0.00,Weather8,2013-06-02 08:29:00,
2013-06-02 04:34:00,70.6,65.1,29.69,SW,225,2.2,2.5,83,0.00,,,0.00,Weather8,2013-06-02 08:34:00,
2013-06-02 04:39:00,70.6,65.1,29.69,SW,225,0.4,2.5,83,0.00,,,0.00,Weather8,2013-06-02 08:39:00,
2013-06-02 04:44:00,70.6,65.1,29.70,SW,225,1.6,2.5,83,0.00,,,0.00,Weather8,2013-06-02 08:44:00,
2013-06-02 04:49:00,70.6,65.1,29.70,SSW,202,2.0,2.5,83,0.00,,,0.00,Weather8,2013-06-02 08:49:00,
2013-06-02 04:54:00,70.6,65.1,29.69,SW,225,1.1,2.5,83,0.00,,,0.00,Weather8,2013-06-02 08:54:00,
2013-06-02 04:59:00,70.6,65.1,29.70,SE,135,1.1,2.2,83,0.00,,,0.00,Weather8,2013-06-02 08:59:00,
2013-06-02 05:04:00,70.4,64.9,29.69,SSW,202,1.6,2.2,83,0.00,,,0.00,Weather8,2013-06-02 09:04:00,
2013-06-02 05:09:00,70.4,65.3,29.70,SW,225,1.8,2.2,84,0.00,,,0.00,Weather8,2013-06-02 09:09:00,
2013-06-02 05:14:00,70.4,64.9,29.69,SSW,202,1.6,2.2,83,0.00,,,0.00,Weather8,2013-06-02 09:14:00,
2013-06-02 05:19:00,70.4,65.3,29.69,SW,225,1.1,2.7,84,0.00,,,0.00,Weather8,2013-06-02 09:19:00,
2013-06-02 05:24:00,70.4,65.3,29.69,North,0,0.4,2.7,84,0.00,,,0.00,Weather8,2013-06-02 09:24:00,
2013-06-02 05:30:00,70.4,65.3,29.69,SW,225,0.2,2.7,84,0.00,,,0.00,Weather8,2013-06-02 09:30:00,
2013-06-02 05:35:00,70.2,65.1,29.69,SSW,202,1.8,1.8,84,0.00,,,0.00,Weather8,2013-06-02 09:35:00,
2013-06-02 05:40:00,70.2,65.1,29.69,South,180,1.6,2.2,84,0.00,,,0.00,Weather8,2013-06-02 09:40:00,
2013-06-02 05:45:00,70.2,65.1,29.69,SSW,202,0.9,2.2,84,0.00,,,0.00,Weather8,2013-06-02 09:45:00,
2013-06-02 05:50:00,70.0,64.9,29.69,South,180,0.4,2.2,84,0.00,,,0.00,Weather8,2013-06-02 09:50:00,
2013-06-02 05:55:00,70.0,64.9,29.69,SSW,202,1.3,2.2,84,0.00,,,0.00,Weather8,2013-06-02 09:55:00,
2013-06-02 06:00:00,69.8,64.7,29.69,SW,225,2.0,2.2,84,0.00,,,0.00,Weather8,2013-06-02 10:00:00,
2013-06-02 06:05:00,69.8,64.7,29.69,SSW,202,1.6,3.4,84,0.00,,,0.00,Weather8,2013-06-02 10:05:00,
2013-06-02 06:10:00,70.0,64.9,29.69,WSW,247,1.3,3.4,84,0.00,,,0.00,Weather8,2013-06-02 10:10:00,
2013-06-02 06:15:00,70.0,64.9,29.69,SW,225,2.0,2.9,84,0.00,,,0.00,Weather8,2013-06-02 10:15:00,
2013-06-02 06:20:00,70.0,64.9,29.69,SW,225,1.6,2.9,84,0.00,,,0.00,Weather8,2013-06-02 10:20:00,
2013-06-02 06:25:00,70.0,64.9,29.69,SW,225,3.4,3.4,84,0.00,,,0.00,Weather8,2013-06-02 10:25:00,
2013-06-02 06:30:00,70.2,65.1,29.69,SW,225,1.8,3.4,84,0.00,,,0.00,Weather8,2013-06-02 10:30:00,
2013-06-02 06:35:00,70.2,65.1,29.69,WNW,292,2.5,3.4,84,0.00,,,0.00,Weather8,2013-06-02 10:35:00,
2013-06-02 06:40:00,70.4,65.3,29.69,SSW,202,1.3,2.5,84,0.00,,,0.00,Weather8,2013-06-02 10:40:00,
2013-06-02 06:45:00,70.6,65.4,29.69,SSE,157,1.8,2.7,84,0.00,,,0.00,Weather8,2013-06-02 10:45:00,
2013-06-02 06:50:00,70.6,65.4,29.69,SW,225,1.8,2.7,84,0.00,,,0.00,Weather8,2013-06-02 10:50:00,
2013-06-02 06:55:00,70.7,65.6,29.69,SSW,202,2.2,3.4,84,0.00,,,0.00,Weather8,2013-06-02 10:55:00,
2013-06-02 07:00:00,70.9,65.8,29.69,WSW,247,2.7,3.4,84,0.00,,,0.00,Weather8,2013-06-02 11:00:00,
2013-06-02 07:05:00,70.9,65.8,29.69,WSW,247,1.1,3.4,84,0.00,,,0.00,Weather8,2013-06-02 11:05:00,
2013-06-02 07:10:00,71.1,66.0,29.69,SSE,157,2.5,2.7,84,0.00,,,0.00,Weather8,2013-06-02 11:10:00,
2013-06-02 07:15:00,71.5,66.3,29.69,SW,225,1.1,3.1,84,0.00,,,0.00,Weather8,2013-06-02 11:15:00,
2013-06-02 07:20:00,71.6,66.5,29.69,SSW,202,1.8,3.1,84,0.00,,,0.00,Weather8,2013-06-02 11:20:00,
2013-06-02 07:25:00,71.8,66.7,29.69,SSE,157,2.0,3.6,84,0.00,,,0.00,Weather8,2013-06-02 11:25:00,
2013-06-02 07:30:00,72.0,66.9,29.69,South,180,1.8,3.6,84,0.00,,,0.00,Weather8,2013-06-02 11:30:00,
2013-06-02 07:35:00,72.2,66.7,29.69,SSW,202,3.8,4.0,83,0.00,,,0.00,Weather8,2013-06-02 11:35:00,
2013-06-02 07:40:00,72.4,66.9,29.69,SSW,202,2.5,4.0,83,0.00,,,0.00,Weather8,2013-06-02 11:40:00,
2013-06-02 07:45:00,72.5,66.8,29.69,SSW,202,1.3,4.0,82,0.00,,,0.00,Weather8,2013-06-02 11:45:00,
2013-06-02 07:50:00,72.9,67.4,29.69,SE,135,0.9,3.8,83,0.00,,,0.00,Weather8,2013-06-02 11:50:00,
2013-06-02 07:55:00,73.1,67.6,29.69,WSW,247,1.3,2.9,83,0.00,,,0.00,Weather8,2013-06-02 11:55:00,
2013-06-02 08:00:00,73.6,67.9,29.69,SSW,202,2.0,2.7,82,0.00,,,0.00,Weather8,2013-06-02 12:00:00,
2013-06-02 08:05:00,73.8,68.1,29.69,SW,225,1.6,3.1,82,0.00,,,0.00,Weather8,2013-06-02 12:05:00,
2013-06-02 08:10:00,74.3,68.2,29.69,SSW,202,1.3,3.1,81,0.00,,,0.00,Weather8,2013-06-02 12:10:00,
2013-06-02 08:15:00,74.7,68.6,29.69,SSW,202,1.3,3.1,81,0.00,,,0.00,Weather8,2013-06-02 12:15:00,
2013-06-02 08:20:00,75.1,68.6,29.69,West,270,0.9,3.4,80,0.00,,,0.00,Weather8,2013-06-02 12:20:00,
2013-06-02 08:25:00,75.2,68.4,29.68,SW,225,3.6,3.6,79,0.00,,,0.00,Weather8,2013-06-02 12:25:00,
2013-06-02 08:30:00,75.8,68.9,29.68,South,180,4.3,4.3,79,0.00,,,0.00,Weather8,2013-06-02 12:30:00,
2013-06-02 08:35:00,76.0,68.7,29.68,SW,225,3.4,4.3,78,0.00,,,0.00,Weather8,2013-06-02 12:35:00,
2013-06-02 08:40:00,76.3,68.6,29.68,SSW,202,2.5,4.3,77,0.00,,,0.00,Weather8,2013-06-02 12:40:00,
2013-06-02 08:45:00,76.5,68.8,29.68,SSW,202,0.7,3.4,77,0.00,,,0.00,Weather8,2013-06-02 12:45:00,
2013-06-02 08:50:00,76.9,69.1,29.68,South,180,2.0,2.7,77,0.00,,,0.00,Weather8,2013-06-02 12:50:00,
2013-06-02 08:55:00,77.2,69.0,29.68,SW,225,3.1,3.4,76,0.00,,,0.00,Weather8,2013-06-02 12:55:00,
2013-06-02 09:00:00,77.4,68.9,29.68,South,180,3.1,3.4,75,0.00,,,0.00,Weather8,2013-06-02 13:00:00,
2013-06-02 09:05:00,77.8,69.2,29.68,SSW,202,3.4,5.1,75,0.00,,,0.00,Weather8,2013-06-02 13:05:00,
2013-06-02 09:10:00,78.1,69.1,29.68,South,180,2.0,5.1,74,0.00,,,0.00,Weather8,2013-06-02 13:10:00,
2013-06-02 09:15:00,78.5,69.5,29.67,SW,225,1.8,4.3,74,0.00,,,0.00,Weather8,2013-06-02 13:15:00,
2013-06-02 09:20:00,78.7,69.2,29.67,SSW,202,1.8,3.4,73,0.00,,,0.00,Weather8,2013-06-02 13:20:00,
2013-06-02 09:25:00,79.0,69.2,29.67,NNW,337,1.8,4.0,72,0.00,,,0.00,Weather8,2013-06-02 13:25:00,
2013-06-02 09:30:00,79.4,69.6,29.67,SSW,202,1.8,4.0,72,0.00,,,0.00,Weather8,2013-06-02 13:30:00,
2013-06-02 09:35:00,79.7,69.9,29.67,South,180,2.5,4.0,72,0.00,,,0.00,Weather8,2013-06-02 13:35:00,
2013-06-02 09:40:00,79.9,69.7,29.66,WSW,247,2.2,4.7,71,0.00,,,0.00,Weather8,2013-06-02 13:40:00,
2013-06-02 09:45:00,80.3,69.2,29.66,WSW,247,3.4,5.8,69,0.00,,,0.00,Weather8,2013-06-02 13:45:00,
2013-06-02 09:50:00,80.6,69.6,29.66,WSW,247,3.4,5.8,69,0.00,,,0.00,Weather8,2013-06-02 13:50:00,
2013-06-02 09:55:00,81.2,69.6,29.66,SSW,202,1.8,5.8,68,0.00,,,0.00,Weather8,2013-06-02 13:55:00,
2013-06-02 10:00:00,81.5,69.9,29.66,WNW,292,3.6,4.9,68,0.00,,,0.00,Weather8,2013-06-02 14:00:00,
2013-06-02 10:05:00,82.1,69.5,29.66,SW,225,1.8,6.3,66,0.00,,,0.00,Weather8,2013-06-02 14:05:00,
2013-06-02 10:10:00,82.4,69.8,29.66,West,270,2.5,6.3,66,0.00,,,0.00,Weather8,2013-06-02 14:10:00,
2013-06-02 10:15:00,83.0,70.4,29.66,SSW,202,3.4,6.5,66,0.00,,,0.00,Weather8,2013-06-02 14:15:00,
2013-06-02 10:20:00,83.5,70.9,29.66,SSW,202,1.8,6.5,66,0.00,,,0.00,Weather8,2013-06-02 14:20:00,
2013-06-02 10:25:00,84.2,70.7,29.66,SSE,157,2.2,6.5,64,0.00,,,0.00,Weather8,2013-06-02 14:25:00,
2013-06-02 10:30:00,84.8,70.4,29.65,SW,225,3.4,5.1,62,0.00,,,0.00,Weather8,2013-06-02 14:30:00,
2013-06-02 10:35:00,85.3,70.8,29.65,South,180,1.6,5.1,62,0.00,,,0.00,Weather8,2013-06-02 14:35:00,
2013-06-02 10:40:00,86.0,71.0,29.65,South,180,3.1,5.1,61,0.00,,,0.00,Weather8,2013-06-02 14:40:00,
2013-06-02 10:45:00,86.6,71.1,29.65,SSW,202,1.6,4.7,60,0.00,,,0.00,Weather8,2013-06-02 14:45:00,
2013-06-02 10:50:00,87.5,71.5,29.66,WSW,247,1.8,4.0,59,0.00,,,0.00,Weather8,2013-06-02 14:50:00,
2013-06-02 10:55:00,88.2,71.7,29.65,South,180,0.7,4.0,58,0.00,,,0.00,Weather8,2013-06-02 14:55:00,
2013-06-02 11:00:00,88.6,71.4,29.65,SW,225,3.4,6.3,57,0.00,,,0.00,Weather8,2013-06-02 15:00:00,
2013-06-02 11:05:00,88.6,70.8,29.65,SSW,202,6.3,6.3,56,0.00,,,0.00,Weather8,2013-06-02 15:05:00,
2013-06-02 11:10:00,88.9,70.7,29.65,South,180,5.4,7.6,55,0.00,,,0.00,Weather8,2013-06-02 15:10:00,
2013-06-02 11:15:00,89.1,70.3,29.65,SW,225,4.0,7.6,54,0.00,,,0.00,Weather8,2013-06-02 15:15:00,
2013-06-02 11:20:00,89.1,70.8,29.65,SSW,202,3.4,6.0,55,0.00,,,0.00,Weather8,2013-06-02 15:20:00,
2013-06-02 11:25:00,89.8,71.5,29.65,SW,225,3.1,5.4,55,0.00,,,0.00,Weather8,2013-06-02 15:25:00,
2013-06-02 11:30:00,90.2,70.7,29.65,WNW,292,2.5,6.3,53,0.00,,,0.00,Weather8,2013-06-02 15:30:00,
2013-06-02 11:35:00,90.4,70.8,29.65,SE,135,4.0,7.6,53,0.00,,,0.00,Weather8,2013-06-02 15:35:00,
2013-06-02 11:40:00,90.4,70.3,29.65,SW,225,1.8,7.6,52,0.00,,,0.00,Weather8,2013-06-02 15:40:00,
2013-06-02 11:45:00,90.4,70.8,29.65,SW,225,3.8,7.6,53,0.00,,,0.00,Weather8,2013-06-02 15:45:00,
2013-06-02 11:50:00,91.1,71.5,29.65,SSW,202,2.7,6.9,53,0.00,,,0.00,Weather8,2013-06-02 15:50:00,
2013-06-02 11:55:00,90.9,70.8,29.65,West,270,1.6,6.9,52,0.00,,,0.00,Weather8,2013-06-02 15:55:00,
2013-06-02 12:00:00,90.7,71.2,29.65,SW,225,2.9,4.9,53,0.00,,,0.00,Weather8,2013-06-02 16:00:00,
2013-06-02 12:05:00,90.7,71.2,29.65,SW,225,1.1,4.5,53,0.00,,,0.00,Weather8,2013-06-02 16:05:00,
2013-06-02 12:10:00,90.7,71.2,29.65,SW,225,2.0,4.7,53,0.00,,,0.00,Weather8,2013-06-02 16:10:00,
2013-06-02 12:15:00,90.5,70.5,29.65,South,180,2.7,4.7,52,0.00,,,0.00,Weather8,2013-06-02 16:15:00,
2013-06-02 12:20:00,90.5,71.0,29.65,WNW,292,1.8,4.7,53,0.00,,,0.00,Weather8,2013-06-02 16:20:00,
2013-06-02 12:25:00,90.5,70.5,29.65,SSW,202,2.0,5.8,52,0.00,,,0.00,Weather8,2013-06-02 16:25:00,
2013-06-02 12:30:00,90.0,70.6,29.65,West,270,2.5,5.8,53,0.00,,,0.00,Weather8,2013-06-02 16:30:00,
2013-06-02 12:35:00,89.8,70.4,29.65,SW,225,2.5,5.8,53,0.00,,,0.00,Weather8,2013-06-02 16:35:00,
2013-06-02 12:40:00,90.0,70.6,29.65,WSW,247,3.4,5.4,53,0.00,,,0.00,Weather8,2013-06-02 16:40:00,
2013-06-02 12:45:00,89.8,70.9,29.65,WSW,247,1.8,5.1,54,0.00,,,0.00,Weather8,2013-06-02 16:45:00,
2013-06-02 12:50:00,90.0,71.1,29.64,WNW,292,2.0,4.3,54,0.00,,,0.00,Weather8,2013-06-02 16:50:00,
2013-06-02 12:55:00,90.4,71.4,29.65,South,180,2.7,4.0,54,0.00,,,0.00,Weather8,2013-06-02 16:55:00,
2013-06-02 13:00:00,90.7,71.2,29.64,WSW,247,5.6,5.6,53,0.00,,,0.00,Weather8,2013-06-02 17:00:00,
2013-06-02 13:05:00,90.7,70.1,29.64,SSE,157,2.7,5.6,51,0.00,,,0.00,Weather8,2013-06-02 17:05:00,
2013-06-02 13:10:00,90.7,71.2,29.64,West,270,2.2,5.6,53,0.00,,,0.00,Weather8,2013-06-02 17:10:00,
2013-06-02 13:15:00,91.3,71.6,29.64,SW,225,2.5,4.5,53,0.00,,,0.00,Weather8,2013-06-02 17:15:00,
2013-06-02 13:20:00,91.8,71.7,29.64,SE,135,3.6,4.7,52,0.00,,,0.00,Weather8,2013-06-02 17:20:00,
2013-06-02 13:25:00,91.8,71.7,29.64,SE,135,3.6,4.7,52,0.00,,,0.00,Weather8,2013-06-02 17:25:00,
2013-06-02 13:30:00,91.8,71.7,29.64,SE,135,3.6,4.7,52,0.00,,,0.00,Weather8,2013-06-02 17:30:00,
2013-06-02 13:35:00,91.8,71.7,29.64,SE,135,3.6,3.6,52,0.00,,,0.00,Weather8,2013-06-02 17:35:00,
2013-06-02 13:40:00,91.8,71.7,29.64,SE,135,3.6,3.6,52,0.00,,,0.00,Weather8,2013-06-02 17:40:00,
2013-06-02 13:45:00,91.8,71.7,29.64,SE,135,3.6,3.6,52,0.00,,,0.00,Weather8,2013-06-02 17:45:00,
2013-06-02 13:50:00,91.1,70.4,29.63,SW,225,4.0,4.0,51,0.00,,,0.00,Weather8,2013-06-02 17:50:00,
2013-06-02 13:55:00,91.3,71.6,29.62,WSW,247,3.4,6.3,53,0.00,,,0.00,Weather8,2013-06-02 17:55:00,
2013-06-02 14:00:00,91.8,72.7,29.63,SE,135,1.1,6.3,54,0.00,,,0.00,Weather8,2013-06-02 18:00:00,
2013-06-02 14:05:00,92.2,71.9,29.62,East,90,4.0,6.3,52,0.00,,,0.00,Weather8,2013-06-02 18:05:00,
2013-06-02 14:10:00,91.8,71.7,29.62,SSW,202,3.4,4.3,52,0.00,,,0.00,Weather8,2013-06-02 18:10:00,
2013-06-02 14:15:00,90.5,71.6,29.62,SSW,202,2.7,4.3,54,0.00,,,0.00,Weather8,2013-06-02 18:15:00,
2013-06-02 14:20:00,90.0,71.1,29.62,SSW,202,2.2,4.3,54,0.00,,,0.00,Weather8,2013-06-02 18:20:00,
2013-06-02 14:25:00,89.6,71.3,29.62,SSE,157,4.0,4.0,55,0.00,,,0.00,Weather8,2013-06-02 18:25:00,
2013-06-02 14:30:00,88.9,71.2,29.62,South,180,1.8,4.0,56,0.00,,,0.00,Weather8,2013-06-02 18:30:00,
2013-06-02 14:35:00,88.6,71.4,29.62,South,180,3.4,4.0,57,0.00,,,0.00,Weather8,2013-06-02 18:35:00,
2013-06-02 14:40:00,88.9,71.2,29.62,SSW,202,2.5,3.8,56,0.00,,,0.00,Weather8,2013-06-02 18:40:00,
2013-06-02 14:45:00,88.9,71.2,29.62,SE,135,0.7,4.0,56,0.00,,,0.00,Weather8,2013-06-02 18:45:00,
2013-06-02 14:50:00,89.1,71.4,29.62,WSW,247,1.8,5.4,56,0.00,,,0.00,Weather8,2013-06-02 18:50:00,
2013-06-02 14:55:00,89.3,70.9,29.62,South,180,5.4,5.4,55,0.00,,,0.00,Weather8,2013-06-02 18:55:00,
2013-06-02 15:00:00,89.5,71.1,29.62,NNW,337,3.4,5.4,55,0.00,,,0.00,Weather8,2013-06-02 19:00:00,
2013-06-02 15:05:00,89.3,70.9,29.62,South,180,4.7,5.4,55,0.00,,,0.00,Weather8,2013-06-02 19:05:00,
2013-06-02 15:10:00,89.1,70.8,29.62,SSE,157,4.0,5.4,55,0.00,,,0.00,Weather8,2013-06-02 19:10:00,
2013-06-02 15:15:00,89.3,71.5,29.61,SW,225,3.8,4.7,56,0.00,,,0.00,Weather8,2013-06-02 19:15:00,
2013-06-02 15:20:00,89.3,71.5,29.62,SSW,202,2.5,4.5,56,0.00,,,0.00,Weather8,2013-06-02 19:20:00,
2013-06-02 15:25:00,89.1,71.4,29.61,SSW,202,1.3,4.5,56,0.00,,,0.00,Weather8,2013-06-02 19:25:00,
2013-06-02 15:30:00,88.7,70.5,29.61,South,180,4.0,4.0,55,0.00,,,0.00,Weather8,2013-06-02 19:30:00,
2013-06-02 15:35:00,88.6,70.8,29.61,SE,135,2.7,4.0,56,0.00,,,0.00,Weather8,2013-06-02 19:35:00,
2013-06-02 15:40:00,88.2,70.6,29.61,SW,225,2.7,5.4,56,0.00,,,0.00,Weather8,2013-06-02 19:40:00,
2013-06-02 15:45:00,88.2,71.1,29.61,WSW,247,3.4,5.4,57,0.00,,,0.00,Weather8,2013-06-02 19:45:00,
2013-06-02 15:50:00,88.4,70.7,29.61,South,180,4.0,4.7,56,0.00,,,0.00,Weather8,2013-06-02 19:50:00,
2013-06-02 15:55:00,88.4,71.2,29.61,SW,225,2.5,4.7,57,0.00,,,0.00,Weather8,2013-06-02 19:55:00,
2013-06-02 16:00:00,88.7,71.6,29.60,SSW,202,2.7,4.0,57,0.00,,,0.00,Weather8,2013-06-02 20:00:00,
2013-06-02 16:05:00,88.6,70.8,29.60,SSW,202,2.5,3.6,56,0.00,,,0.00,Weather8,2013-06-02 20:05:00,
2013-06-02 16:10:00,88.2,70.6,29.61,South,180,2.0,3.6,56,0.00,,,0.00,Weather8,2013-06-02 20:10:00,
2013-06-02 16:15:00,87.5,70.4,29.61,SW,225,1.6,3.6,57,0.00,,,0.00,Weather8,2013-06-02 20:15:00,
2013-06-02 16:20:00,87.1,70.0,29.60,South,180,0.7,4.3,57,0.00,,,0.00,Weather8,2013-06-02 20:20:00,
2013-06-02 16:25:00,86.9,70.4,29.61,SSW,202,0.9,4.3,58,0.00,,,0.00,Weather8,2013-06-02 20:25:00,
2013-06-02 16:30:00,86.2,70.7,29.61,South,180,2.0,4.3,60,0.00,,,0.00,Weather8,2013-06-02 20:30:00,
2013-06-02 16:35:00,85.3,71.3,29.61,SSE,157,0.0,4.0,63,0.00,,,0.00,Weather8,2013-06-02 20:35:00,
2013-06-02 16:40:00,84.6,71.6,29.61,SSW,202,1.1,3.4,65,0.00,,,0.00,Weather8,2013-06-02 20:40:00,
2013-06-02 16:45:00,84.6,72.5,29.61,SW,225,1.6,1.8,67,0.00,,,0.00,Weather8,2013-06-02 20:45:00,
2013-06-02 16:50:00,84.8,73.1,29.61,South,180,2.7,2.7,68,0.00,,,0.00,Weather8,2013-06-02 20:50:00,
2013-06-02 16:55:00,85.0,73.3,29.61,SSW,202,1.8,2.7,68,0.00,,,0.00,Weather8,2013-06-02 20:55:00,
2013-06-02 17:00:00,84.8,73.1,29.61,SSE,157,1.6,2.7,68,0.00,,,0.00,Weather8,2013-06-02 21:00:00,
2013-06-02 17:05:00,84.1,72.4,29.61,SSE,157,1.1,2.5,68,0.00,,,0.00,Weather8,2013-06-02 21:05:00,
2013-06-02 17:10:00,83.7,72.0,29.61,South,180,1.3,2.5,68,0.00,,,0.00,Weather8,2013-06-02 21:10:00,
2013-06-02 17:15:00,83.3,72.1,29.60,South,180,2.7,2.7,69,0.00,,,0.00,Weather8,2013-06-02 21:15:00,
2013-06-02 17:20:00,83.0,71.7,29.60,SE,135,2.2,2.7,69,0.00,,,0.00,Weather8,2013-06-02 21:20:00,
2013-06-02 17:25:00,82.4,71.2,29.60,SSW,202,1.8,2.7,69,0.00,,,0.00,Weather8,2013-06-02 21:25:00,
2013-06-02 17:30:00,81.7,70.6,29.61,SSW,202,1.1,2.2,69,0.00,,,0.00,Weather8,2013-06-02 21:30:00,
2013-06-02 17:35:00,80.6,70.0,29.61,South,180,1.1,2.9,70,0.00,,,0.00,Weather8,2013-06-02 21:35:00,
2013-06-02 17:44:00,80.3,70.8,29.62,NE,45,2.2,2.5,73,0.00,,,0.00,Weather8,2013-06-02 21:44:00,
2013-06-02 17:49:00,79.9,70.5,29.62,SW,225,0.4,2.5,73,0.00,,,0.00,Weather8,2013-06-02 21:49:00,
2013-06-02 17:54:00,79.6,70.1,29.61,WSW,247,0.7,2.2,73,0.00,,,0.00,Weather8,2013-06-02 21:54:00,
2013-06-02 17:59:00,79.4,70.4,29.61,SSW,202,1.1,2.2,74,0.00,,,0.00,Weather8,2013-06-02 21:59:00,
2013-06-02 18:04:00,78.8,69.9,29.61,South,180,1.1,3.8,74,0.00,,,0.00,Weather8,2013-06-02 22:04:00,
2013-06-02 18:09:00,78.5,69.5,29.61,South,180,1.6,3.8,74,0.00,,,0.00,Weather8,2013-06-02 22:09:00,
2013-06-02 18:14:00,78.3,69.3,29.61,South,180,1.3,2.7,74,0.00,,,0.00,Weather8,2013-06-02 22:14:00,
2013-06-02 18:19:00,78.3,69.0,29.61,SW,225,1.1,3.4,73,0.00,,,0.00,Weather8,2013-06-02 22:19:00,
2013-06-02 18:24:00,78.1,68.8,29.61,South,180,4.0,4.0,73,0.00,,,0.00,Weather8,2013-06-02 22:24:00,
2013-06-02 18:29:00,78.1,68.3,29.61,South,180,1.6,4.0,72,0.00,,,0.00,Weather8,2013-06-02 22:29:00,
2013-06-02 18:34:00,78.1,68.8,29.60,SSW,202,2.0,4.0,73,0.00,,,0.00,Weather8,2013-06-02 22:34:00,
2013-06-02 18:39:00,77.9,68.2,29.60,SSW,202,1.8,2.9,72,0.00,,,0.00,Weather8,2013-06-02 22:39:00,
2013-06-02 18:44:00,77.9,68.2,29.61,South,180,1.8,3.1,72,0.00,,,0.00,Weather8,2013-06-02 22:44:00,
2013-06-02 18:49:00,78.1,68.3,29.61,SSW,202,3.1,3.4,72,0.00,,,0.00,Weather8,2013-06-02 22:49:00,
2013-06-02 18:54:00,78.3,68.5,29.61,South,180,3.4,3.4,72,0.00,,,0.00,Weather8,2013-06-02 22:54:00,
2013-06-02 18:59:00,78.5,68.7,29.61,SSW,202,1.1,3.4,72,0.00,,,0.00,Weather8,2013-06-02 22:59:00,
2013-06-02 19:04:00,78.5,68.3,29.61,SW,225,2.5,3.4,71,0.00,,,0.00,Weather8,2013-06-02 23:04:00,
2013-06-02 19:09:00,78.5,68.7,29.61,ENE,67,1.6,2.5,72,0.00,,,0.00,Weather8,2013-06-02 23:09:00,
2013-06-02 19:14:00,78.1,68.3,29.61,SSW,202,2.2,2.5,72,0.00,,,0.00,Weather8,2013-06-02 23:14:00,
2013-06-02 19:19:00,78.1,68.0,29.61,SW,225,2.5,2.5,71,0.00,,,0.00,Weather8,2013-06-02 23:19:00,
2013-06-02 19:24:00,77.9,67.8,29.61,SSW,202,2.2,2.5,71,0.00,,,0.00,Weather8,2013-06-02 23:24:00,
2013-06-02 19:29:00,77.8,68.1,29.61,SW,225,2.0,2.5,72,0.00,,,0.00,Weather8,2013-06-02 23:29:00,
2013-06-02 19:34:00,77.8,67.6,29.61,SSW,202,0.9,2.5,71,0.00,,,0.00,Weather8,2013-06-02 23:34:00,
2013-06-02 19:39:00,77.6,67.5,29.61,SSW,202,1.1,2.7,71,0.00,,,0.00,Weather8,2013-06-02 23:39:00,
2013-06-02 19:44:00,77.4,67.3,29.61,SSW,202,1.1,2.7,71,0.00,,,0.00,Weather8,2013-06-02 23:44:00,
2013-06-02 19:49:00,77.4,67.3,29.61,SW,225,0.7,1.8,71,0.00,,,0.00,Weather8,2013-06-02 23:49:00,
2013-06-02 19:54:00,77.4,67.3,29.61,SW,225,1.3,2.0,71,0.00,,,0.00,Weather8,2013-06-02 23:54:00,
2013-06-02 19:59:00,77.0,67.3,29.61,SSW,202,2.7,2.7,72,0.00,,,0.00,Weather8,2013-06-02 23:59:00,
2013-06-02 20:04:00,77.0,67.3,29.63,SW,225,1.1,2.7,72,0.00,,,0.00,Weather8,2013-06-03 00:04:00,
2013-06-02 20:09:00,76.9,67.1,29.62,SSW,202,1.1,2.7,72,0.00,,,0.00,Weather8,2013-06-03 00:09:00,
2013-06-02 20:14:00,76.5,67.2,29.63,West,270,0.0,2.0,73,0.00,,,0.00,Weather8,2013-06-03 00:14:00,
2013-06-02 20:20:00,76.3,67.1,29.63,WSW,247,0.2,1.8,73,0.00,,,0.00,Weather8,2013-06-03 00:20:00,
2013-06-02 20:25:00,76.1,66.9,29.63,WNW,292,0.7,0.9,73,0.00,,,0.00,Weather8,2013-06-03 00:25:00,
2013-06-02 20:30:00,76.1,66.9,29.63,NW,315,0.0,0.9,73,0.00,,,0.00,Weather8,2013-06-03 00:30:00,
2013-06-02 20:35:00,76.0,67.1,29.63,WNW,292,0.0,0.9,74,0.00,,,0.00,Weather8,2013-06-03 00:35:00,
2013-06-02 20:40:00,75.8,67.3,29.63,SSW,202,0.0,0.7,75,0.00,,,0.00,Weather8,2013-06-03 00:40:00,
2013-06-02 20:45:00,75.6,67.2,29.63,West,270,0.0,0.7,75,0.00,,,0.00,Weather8,2013-06-03 00:45:00,
2013-06-02 20:50:00,75.6,67.2,29.63,NNW,337,0.4,0.7,75,0.00,,,0.00,Weather8,2013-06-03 00:50:00,
2013-06-02 20:55:00,75.2,66.8,29.64,NNW,337,0.0,0.7,75,0.00,,,0.00,Weather8,2013-06-03 00:55:00,
2013-06-02 21:00:00,75.2,66.8,29.63,SSW,202,0.4,0.4,75,0.00,,,0.00,Weather8,2013-06-03 01:00:00,
2013-06-02 21:05:00,74.9,66.9,29.63,SSW,202,0.9,1.1,76,0.00,,,0.00,Weather8,2013-06-03 01:05:00,
2013-06-02 21:10:00,74.7,66.7,29.63,SSW,202,0.4,1.1,76,0.00,,,0.00,Weather8,2013-06-03 01:10:00,
2013-06-02 21:15:00,74.5,66.9,29.63,SSW,202,1.8,1.8,77,0.00,,,0.00,Weather8,2013-06-03 01:15:00,
2013-06-02 21:20:00,74.3,66.3,29.64,SSW,202,0.7,1.8,76,0.00,,,0.00,Weather8,2013-06-03 01:20:00,
2013-06-02 21:25:00,74.2,66.2,29.64,SSW,202,1.3,1.8,76,0.00,,,0.00,Weather8,2013-06-03 01:25:00,
2013-06-02 21:30:00,74.2,66.2,29.64,SSW,202,1.3,1.3,76,0.00,,,0.00,Weather8,2013-06-03 01:30:00,
2013-06-02 21:35:00,74.0,66.0,29.64,SSW,202,1.1,2.0,76,0.00,,,0.00,Weather8,2013-06-03 01:35:00,
2013-06-02 21:40:00,73.8,65.8,29.64,SSW,202,0.4,2.0,76,0.00,,,0.00,Weather8,2013-06-03 01:40:00,
2013-06-02 21:45:00,73.8,65.8,29.64,SW,225,1.3,2.0,76,0.00,,,0.00,Weather8,2013-06-03 01:45:00,
2013-06-02 21:50:00,73.8,65.8,29.64,SSW,202,1.1,2.2,76,0.00,,,0.00,Weather8,2013-06-03 01:50:00,
2013-06-02 21:55:00,73.8,65.8,29.64,SSW,202,1.8,2.2,76,0.00,,,0.00,Weather8,2013-06-03 01:55:00,
2013-06-02 22:00:00,73.8,65.8,29.64,SSW,202,3.1,3.1,76,0.00,,,0.00,Weather8,2013-06-03 02:00:00,
2013-06-02 22:05:00,73.8,66.2,29.65,South,180,0.9,3.1,77,0.00,,,0.00,Weather8,2013-06-03 02:05:00,
2013-06-02 22:10:00,73.8,66.2,29.65,South,180,3.4,3.4,77,0.00,,,0.00,Weather8,2013-06-03 02:10:00,
2013-06-02 22:15:00,73.8,66.2,29.65,SSW,202,3.1,4.0,77,0.00,,,0.00,Weather8,2013-06-03 02:15:00,
2013-06-02 22:20:00,74.0,66.7,29.65,WSW,247,2.9,4.5,78,0.00,,,0.00,Weather8,2013-06-03 02:20:00,
2013-06-02 22:25:00,74.0,66.7,29.64,NW,315,2.2,4.5,78,0.00,,,0.00,Weather8,2013-06-03 02:25:00,
2013-06-02 22:30:00,74.0,66.7,29.64,WSW,247,1.3,4.0,78,0.00,,,0.00,Weather8,2013-06-03 02:30:00,
2013-06-02 22:35:00,74.0,66.7,29.64,SW,225,2.5,3.8,78,0.00,,,0.00,Weather8,2013-06-03 02:35:00,
2013-06-02 22:40:00,74.2,66.9,29.64,WSW,247,0.7,3.8,78,0.00,,,0.00,Weather8,2013-06-03 02:40:00,
2013-06-02 22:45:00,74.2,66.5,29.64,North,0,4.0,4.0,77,0.00,,,0.00,Weather8,2013-06-03 02:45:00,
2013-06-02 22:50:00,74.2,66.2,29.64,SW,225,1.3,4.9,76,0.00,,,0.00,Weather8,2013-06-03 02:50:00,
2013-06-02 22:55:00,74.2,65.8,29.64,SW,225,2.2,4.9,75,0.00,,,0.00,Weather8,2013-06-03 02:55:00,
2013-06-02 23:00:00,74.2,65.8,29.64,SW,225,2.2,3.8,75,0.00,,,0.00,Weather8,2013-06-03 03:00:00,
2013-06-02 23:05:00,74.3,65.9,29.64,SW,225,3.8,4.5,75,0.00,,,0.00,Weather8,2013-06-03 03:05:00,
2013-06-02 23:10:00,74.2,65.8,29.64,WSW,247,1.1,5.1,75,0.00,,,0.00,Weather8,2013-06-03 03:10:00,
2013-06-02 23:15:00,74.0,66.0,29.65,SW,225,2.2,5.1,76,0.00,,,0.00,Weather8,2013-06-03 03:15:00,
2013-06-02 23:20:00,73.6,66.4,29.65,SW,225,2.7,6.0,78,0.00,,,0.00,Weather8,2013-06-03 03:20:00,
2013-06-02 23:25:00,73.3,66.1,29.65,SSW,202,2.9,6.0,78,0.00,,,0.00,Weather8,2013-06-03 03:25:00,
2013-06-02 23:30:00,73.1,66.3,29.65,SW,225,2.9,4.0,79,0.00,,,0.00,Weather8,2013-06-03 03:30:00,
2013-06-02 23:35:00,72.7,65.9,29.65,SW,225,1.3,2.9,79,0.00,,,0.00,Weather8,2013-06-03 03:35:00,
2013-06-02 23:40:00,72.4,65.5,29.64,West,270,1.1,3.4,79,0.00,,,0.00,Weather8,2013-06-03 03:40:00,
2013-06-02 23:45:00,72.4,65.9,29.65,SW,225,1.8,4.7,80,0.00,,,0.00,Weather8,2013-06-03 03:45:00,
2013-06-02 23:50:00,72.0,65.5,29.64,WNW,292,1.6,4.7,80,0.00,,,0.00,Weather8,2013-06-03 03:50:00,
2013-06-02 23:55:00,72.0,65.5,29.64,NW,315,0.4,4.9,80,0.00,,,0.00,Weather8,2013-06-03 03:55:00,